| time (UTC) | temp C | wind direction | speed KPH | gust KPH | rain 1hr cm | rain 24hr cm | rain mn cm | humidity % | barometer mb |
| 20260507133037 | 22 | 137 | 0.0 | 0.0 | 0.00 | 0.00 | 0.00 | 100 | 1003.1 |
| 20260507132007 | 22 | 131 | 0.0 | 0.0 | 0.00 | 0.00 | 0.00 | 100 | 1003.1 |
| 20260507130937 | 22 | 76 | 0.0 | 0.0 | 0.00 | 0.00 | 0.00 | 100 | 1003.6 |
| 20260507125937 | 22 | 87 | 0.0 | 0.0 | 0.00 | 0.00 | 0.00 | 100 | 1003.5 |
| 20260507124907 | 21 | 116 | 0.0 | 0.0 | 0.00 | 0.00 | 0.00 | 100 | 1003.4 |
| 20260507123907 | 21 | 120 | 0.0 | 0.0 | 0.00 | 0.00 | 0.00 | 100 | 1003.9 |
| 20260507122907 | 22 | 166 | 0.0 | 0.0 | 0.00 | 0.00 | 0.00 | 100 | 1003.8 |
| 20260507121907 | 23 | 109 | 0.0 | 0.0 | 0.00 | 0.00 | 0.00 | 100 | 1003.9 |
| 20260507120837 | 22 | 111 | 0.0 | 0.0 | 0.00 | 0.00 | 0.00 | 100 | 1003.7 |
| 20260507115837 | 22 | 163 | 0.0 | 0.0 | 0.00 | 0.00 | 0.00 | 100 | 1003.8 |
| 20260507114837 | 21 | 121 | 0.0 | 0.0 | 0.00 | 0.00 | 0.00 | 100 | 1004.1 |
| 20260507113836 | 21 | 140 | 0.0 | 0.0 | 0.00 | 0.00 | 0.00 | 100 | 1003.9 |
| 20260507112836 | 21 | 135 | 0.0 | 0.0 | 0.00 | 0.00 | 0.00 | 100 | 1004.0 |
| 20260507111836 | 21 | 125 | 0.0 | 0.0 | 0.00 | 0.00 | 0.00 | 100 | 1004.2 |
| 20260507110836 | 21 | 147 | 0.0 | 0.0 | 0.00 | 0.00 | 0.00 | 100 | 1004.0 |
| 20260507105836 | 21 | 132 | 0.0 | 0.0 | 0.00 | 0.00 | 0.00 | 100 | 1004.2 |
| 20260507104806 | 21 | 75 | 0.0 | 0.0 | 0.00 | 0.00 | 0.00 | 100 | 1004.3 |
| 20260507103806 | 21 | 137 | 0.0 | 0.0 | 0.00 | 0.00 | 0.00 | 100 | 1004.3 |
| 20260507102806 | 21 | 110 | 0.0 | 0.0 | 0.00 | 0.00 | 0.00 | 100 | 1004.3 |
| 20260507101806 | 20 | 129 | 0.0 | 0.0 | 0.00 | 0.00 | 0.00 | 100 | 1004.2 |
| 20260507100806 | 21 | 136 | 0.0 | 0.0 | 0.00 | 0.00 | 0.00 | 100 | 1004.5 |
| 20260507095805 | 21 | 128 | 0.0 | 0.0 | 0.00 | 0.00 | 0.00 | 100 | 1004.4 |
| 20260507094805 | 21 | 82 | 0.0 | 0.0 | 0.00 | 0.00 | 0.00 | 100 | 1004.5 |
| 20260507093805 | 20 | 154 | 0.0 | 0.0 | 0.00 | 0.00 | 0.00 | 100 | 1004.5 |
| 20260507092805 | 20 | 135 | 0.0 | 0.0 | 0.00 | 0.00 | 0.00 | 100 | 1004.4 |
| 20260507091805 | 20 | 135 | 0.0 | 0.0 | 0.00 | 0.00 | 0.00 | 100 | 1004.5 |
| 20260507090805 | 20 | 142 | 0.0 | 0.0 | 0.00 | 0.00 | 0.00 | 100 | 1004.4 |
| 20260507085805 | 20 | 147 | 0.0 | 0.0 | 0.00 | 0.00 | 0.00 | 100 | 1004.5 |
| 20260507084735 | 19 | 151 | 0.0 | 0.0 | 0.00 | 0.00 | 0.00 | 100 | 1004.3 |
| 20260507083735 | 18 | 139 | 0.0 | 0.0 | 0.00 | 0.00 | 0.00 | 100 | 1004.3 |
| 20260507082735 | 18 | 55 | 0.0 | 0.0 | 0.00 | 0.00 | 0.00 | 100 | 1004.2 |
| 20260507081735 | 17 | 32 | 0.0 | 0.0 | 0.00 | 0.00 | 0.00 | 100 | 1004.3 |
| 20260507080704 | 17 | 25 | 0.0 | 0.0 | 0.00 | 0.00 | 0.00 | 100 | 1004.2 |
| 20260507075704 | 17 | 0 | 0.0 | 0.0 | 0.00 | 0.00 | 0.00 | 100 | 1004.4 |
| 20260507074704 | 17 | 353 | 0.0 | 0.0 | 0.00 | 0.00 | 0.00 | 100 | 1004.6 |
| 20260507073634 | 16 | 32 | 0.0 | 0.0 | 0.00 | 0.00 | 0.00 | 100 | 1004.7 |
| 20260507072634 | 16 | 0 | 0.0 | 0.0 | 0.00 | 0.00 | 0.00 | 100 | 1004.8 |
| 20260507071634 | 16 | 0 | 0.0 | 0.0 | 0.00 | 0.00 | 0.00 | 100 | 1004.8 |
| 20260507070634 | 15 | 23 | 0.0 | 0.0 | 0.00 | 0.00 | 0.00 | 100 | 1004.8 |
| 20260507065604 | 15 | 27 | 0.0 | 0.0 | 0.00 | 0.00 | 0.00 | 100 | 1004.8 |
| 20260507064534 | 15 | 3 | 0.0 | 0.0 | 0.00 | 0.00 | 0.00 | 100 | 1004.7 |
| 20260507063533 | 14 | 10 | 0.0 | 0.0 | 0.00 | 0.00 | 0.00 | 100 | 1004.7 |
| 20260507062533 | 14 | 19 | 0.0 | 0.0 | 0.00 | 0.00 | 0.00 | 100 | 1004.6 |
| 20260507061507 | 14 | 38 | 0.0 | 0.0 | 0.00 | 0.00 | 0.00 | 100 | 1004.3 |
| 20260507060437 | 13 | 36 | 0.0 | 0.0 | 0.00 | 0.00 | 0.00 | 100 | 1004.3 |
| 20260507055437 | 13 | 1 | 0.0 | 0.0 | 0.00 | 0.00 | 0.00 | 100 | 1004.2 |
| 20260507054437 | 12 | 35 | 0.0 | 0.0 | 0.00 | 0.00 | 0.00 | 100 | 1004.2 |
| 20260507053407 | 12 | 16 | 0.0 | 0.0 | 0.00 | 0.00 | 0.00 | 100 | 1004.2 |
| 20260507052407 | 12 | 26 | 0.0 | 0.0 | 0.00 | 0.00 | 0.00 | 100 | 1004.1 |
| 20260507051336 | 11 | 21 | 0.0 | 0.0 | 0.00 | 0.00 | 0.00 | 100 | 1004.0 |
| 20260507050336 | 11 | 9 | 0.0 | 0.0 | 0.00 | 0.00 | 0.00 | 100 | 1003.9 |
| 20260507045336 | 11 | 18 | 0.0 | 0.0 | 0.00 | 0.00 | 0.00 | 100 | 1003.9 |
| 20260507044337 | 11 | 357 | 0.0 | 0.0 | 0.00 | 0.00 | 0.00 | 100 | 1003.9 |
| 20260507043306 | 11 | 5 | 0.0 | 0.0 | 0.00 | 0.00 | 0.00 | 100 | 1003.9 |
| 20260507042307 | 11 | 13 | 0.0 | 0.0 | 0.00 | 0.00 | 0.00 | 100 | 1003.9 |
| 20260507041306 | 11 | 9 | 0.0 | 0.0 | 0.00 | 0.00 | 0.00 | 100 | 1003.9 |
| 20260507040306 | 11 | 6 | 0.0 | 0.0 | 0.00 | 0.00 | 0.00 | 100 | 1003.9 |
| 20260507035235 | 11 | 0 | 0.0 | 0.0 | 0.00 | 0.00 | 0.00 | 100 | 1003.8 |
| 20260507034205 | 11 | 8 | 0.0 | 0.0 | 0.00 | 0.00 | 0.00 | 100 | 1003.7 |
| 20260507033205 | 11 | 11 | 0.0 | 0.0 | 0.00 | 0.00 | 0.00 | 100 | 1003.9 |
| 20260507032205 | 11 | 17 | 0.0 | 0.0 | 0.00 | 0.00 | 0.00 | 100 | 1003.8 |
| 20260507031205 | 11 | 17 | 0.0 | 0.0 | 0.00 | 0.00 | 0.00 | 100 | 1003.9 |
| 20260507030145 | 11 | 0 | 0.0 | 0.0 | 0.00 | 0.00 | 0.00 | 100 | 1003.9 |
| 20260507025145 | 11 | 21 | 0.0 | 0.0 | 0.00 | 0.00 | 0.00 | 100 | 1003.8 |
| 20260507024145 | 12 | 10 | 0.0 | 0.0 | 0.00 | 0.00 | 0.00 | 100 | 1003.9 |
| 20260507023115 | 12 | 2 | 0.0 | 0.0 | 0.00 | 0.00 | 0.00 | 100 | 1003.8 |
| 20260507022115 | 12 | 19 | 0.0 | 0.0 | 0.00 | 0.00 | 0.00 | 100 | 1003.6 |
| 20260507021115 | 12 | 3 | 0.0 | 0.0 | 0.00 | 0.00 | 0.00 | 100 | 1003.7 |
| 20260507020115 | 12 | 24 | 0.0 | 0.0 | 0.00 | 0.00 | 0.00 | 100 | 1003.8 |
| 20260507015115 | 12 | 1 | 0.0 | 0.0 | 0.00 | 0.00 | 0.00 | 100 | 1003.8 |
| 20260507014115 | 12 | 17 | 0.0 | 0.0 | 0.00 | 0.00 | 0.00 | 100 | 1003.6 |
| 20260507013045 | 12 | 11 | 0.0 | 0.0 | 0.00 | 0.00 | 0.00 | 100 | 1003.7 |
| 20260507012045 | 12 | 309 | 0.0 | 0.0 | 0.00 | 0.00 | 0.00 | 100 | 1003.6 |
| 20260507011015 | 12 | 9 | 0.0 | 0.0 | 0.00 | 0.00 | 0.00 | 100 | 1003.6 |
| 20260507005944 | 12 | 15 | 0.0 | 0.0 | 0.00 | 0.00 | 0.00 | 100 | 1003.7 |
| 20260507004944 | 12 | 10 | 0.0 | 0.0 | 0.00 | 0.00 | 0.00 | 100 | 1003.7 |
| 20260507003944 | 12 | 4 | 0.0 | 0.0 | 0.00 | 0.00 | 0.00 | 100 | 1003.9 |
| 20260507002944 | 12 | 8 | 0.0 | 0.0 | 0.00 | 0.00 | 0.00 | 100 | 1003.7 |
| 20260507001944 | 12 | 6 | 0.0 | 0.0 | 0.00 | 0.00 | 0.00 | 100 | 1003.8 |
| 20260507000914 | 12 | 7 | 0.0 | 0.0 | 0.00 | 0.00 | 0.00 | 100 | 1003.8 |
| 20260506235914 | 12 | 27 | 0.0 | 0.0 | 0.00 | 0.00 | 0.00 | 100 | 1003.8 |
| 20260506234914 | 12 | 1 | 0.0 | 0.0 | 0.00 | 0.00 | 0.00 | 100 | 1003.8 |
| 20260506233844 | 13 | 0 | 0.0 | 0.0 | 0.00 | 0.00 | 0.00 | 100 | 1003.8 |
| 20260506232813 | 13 | 12 | 0.0 | 0.0 | 0.00 | 0.00 | 0.00 | 100 | 1003.9 |
| 20260506231813 | 13 | 20 | 0.0 | 0.0 | 0.00 | 0.00 | 0.00 | 100 | 1003.7 |
| 20260506230743 | 13 | 7 | 0.0 | 0.0 | 0.00 | 0.00 | 0.00 | 100 | 1003.7 |
| 20260506225743 | 13 | 22 | 0.0 | 0.0 | 0.00 | 0.00 | 0.00 | 100 | 1003.8 |
| 20260506224713 | 13 | 0 | 0.0 | 0.0 | 0.00 | 0.00 | 0.00 | 100 | 1003.8 |
| 20260506223713 | 13 | 0 | 0.0 | 0.0 | 0.00 | 0.00 | 0.00 | 100 | 1003.7 |
| 20260506222713 | 13 | 9 | 0.0 | 0.0 | 0.00 | 0.00 | 0.00 | 100 | 1003.6 |
| 20260506221713 | 13 | 0 | 0.0 | 0.0 | 0.00 | 0.00 | 0.00 | 100 | 1003.7 |
| 20260506220713 | 13 | 0 | 0.0 | 0.0 | 0.00 | 0.00 | 0.00 | 100 | 1003.6 |
| 20260506215643 | 14 | 7 | 0.0 | 0.0 | 0.00 | 0.00 | 0.00 | 100 | 1003.6 |
| 20260506214643 | 14 | 11 | 0.0 | 0.0 | 0.00 | 0.00 | 0.00 | 100 | 1003.7 |
| 20260506213613 | 14 | 8 | 0.0 | 0.0 | 0.00 | 0.00 | 0.00 | 100 | 1003.5 |
| 20260506212613 | 15 | 1 | 0.0 | 0.0 | 0.00 | 0.00 | 0.00 | 100 | 1003.4 |
| 20260506211613 | 15 | 16 | 0.0 | 0.0 | 0.00 | 0.00 | 0.00 | 100 | 1003.4 |
| 20260506210613 | 15 | 18 | 0.0 | 0.0 | 0.00 | 0.00 | 0.00 | 100 | 1003.2 |
| 20260506205542 | 15 | 0 | 0.0 | 0.0 | 0.00 | 0.00 | 0.00 | 100 | 1003.2 |
| 20260506204542 | 16 | 199 | 0.0 | 0.0 | 0.00 | 0.00 | 0.00 | 100 | 1003.2 |
| 20260506203512 | 16 | 199 | 0.0 | 0.0 | 0.00 | 0.00 | 0.00 | 100 | 1003.1 |
| 20260506202512 | 16 | 199 | 0.0 | 0.0 | 0.00 | 0.00 | 0.00 | 100 | 1002.9 |
| 20260506201442 | 16 | 199 | 0.0 | 0.0 | 0.00 | 0.00 | 0.00 | 100 | 1002.8 |
| 20260506200442 | 16 | 199 | 0.0 | 0.0 | 0.00 | 0.00 | 0.00 | 100 | 1002.7 |
| 20260506195442 | 16 | 199 | 0.0 | 0.0 | 0.00 | 0.00 | 0.00 | 100 | 1002.3 |
| 20260506194442 | 16 | 199 | 0.0 | 0.0 | 0.00 | 0.00 | 0.00 | 100 | 1002.3 |
| 20260506193442 | 17 | 199 | 0.0 | 0.0 | 0.00 | 0.00 | 0.00 | 100 | 1002.1 |
| 20260506192412 | 17 | 199 | 0.0 | 0.0 | 0.00 | 0.00 | 0.00 | 100 | 1002.0 |
| 20260506191411 | 17 | 199 | 0.0 | 0.0 | 0.00 | 0.00 | 0.00 | 100 | 1001.9 |
| 20260506190341 | 17 | 199 | 0.0 | 0.0 | 0.00 | 0.00 | 0.00 | 100 | 1001.9 |
| 20260506185341 | 18 | 199 | 0.0 | 0.0 | 0.00 | 0.00 | 0.00 | 100 | 1001.7 |
| 20260506184341 | 19 | 199 | 0.0 | 0.0 | 0.00 | 0.00 | 0.00 | 100 | 1001.6 |
| 20260506183341 | 20 | 185 | 0.0 | 0.0 | 0.00 | 0.00 | 0.00 | 100 | 1001.5 |
| 20260506182311 | 21 | 177 | 0.0 | 0.0 | 0.00 | 0.00 | 0.00 | 100 | 1001.4 |
| 20260506181311 | 21 | 171 | 0.0 | 0.0 | 0.00 | 0.00 | 0.00 | 100 | 1001.2 |
| 20260506180311 | 21 | 171 | 0.0 | 0.0 | 0.00 | 0.00 | 0.00 | 100 | 1001.1 |
| 20260506175311 | 22 | 195 | 0.0 | 0.0 | 0.00 | 0.00 | 0.00 | 100 | 1009.2 |
| 20260506174241 | 20 | 145 | 0.0 | 0.0 | 0.00 | 0.00 | 0.00 | 100 | 1001.0 |
| 20260506173241 | 21 | 153 | 0.0 | 0.0 | 0.00 | 0.00 | 0.00 | 100 | 1000.8 |
| 20260506172241 | 21 | 128 | 0.0 | 0.0 | 0.00 | 0.00 | 0.00 | 100 | 1000.9 |
| 20260506171240 | 21 | 181 | 0.0 | 0.0 | 0.00 | 0.00 | 0.00 | 100 | 1000.8 |
| 20260506170240 | 21 | 148 | 0.0 | 0.0 | 0.00 | 0.00 | 0.00 | 100 | 1000.6 |
| 20260506165240 | 21 | 156 | 0.0 | 0.0 | 0.00 | 0.00 | 0.00 | 100 | 1000.6 |
| 20260506164240 | 21 | 154 | 0.0 | 0.0 | 0.00 | 0.00 | 0.00 | 100 | 1000.5 |
| 20260506163240 | 22 | 166 | 0.0 | 0.0 | 0.00 | 0.00 | 0.00 | 100 | 1000.6 |
| 20260506162210 | 22 | 153 | 0.0 | 0.0 | 0.00 | 0.00 | 0.00 | 100 | 1000.6 |
| 20260506161210 | 22 | 147 | 0.0 | 0.0 | 0.00 | 0.00 | 0.00 | 100 | 999.8 |
| 20260506160210 | 22 | 180 | 0.0 | 0.0 | 0.00 | 0.00 | 0.00 | 100 | 1000.6 |
| 20260506155140 | 19 | 192 | 0.0 | 0.0 | 0.00 | 0.00 | 0.00 | 100 | 1000.6 |
| 20260506154140 | 22 | 156 | 0.0 | 0.0 | 0.00 | 0.00 | 0.00 | 100 | 999.3 |
| 20260506153109 | 22 | 149 | 0.0 | 0.0 | 0.00 | 0.00 | 0.00 | 100 | 1000.7 |
| 20260506152109 | 22 | 161 | 0.0 | 0.0 | 0.00 | 0.00 | 0.00 | 100 | 1000.7 |
| 20260506151109 | 22 | 186 | 0.0 | 0.0 | 0.00 | 0.00 | 0.00 | 100 | 1000.8 |
| 20260506150039 | 22 | 188 | 0.0 | 0.0 | 0.00 | 0.00 | 0.00 | 100 | 1000.9 |
| 20260506145039 | 22 | 167 | 0.0 | 0.0 | 0.00 | 0.00 | 0.00 | 100 | 1001.0 |
| 20260506144039 | 22 | 155 | 0.0 | 0.0 | 0.00 | 0.00 | 0.00 | 100 | 1001.1 |
| 20260506143039 | 22 | 133 | 0.0 | 0.0 | 0.00 | 0.00 | 0.00 | 100 | 1001.1 |
| 20260506142039 | 22 | 147 | 0.0 | 0.0 | 0.00 | 0.00 | 0.00 | 100 | 1001.3 |
| 20260506141039 | 22 | 139 | 0.0 | 0.0 | 0.00 | 0.00 | 0.00 | 100 | 1001.3 |
| 20260506140039 | 21 | 144 | 0.0 | 0.0 | 0.00 | 0.00 | 0.00 | 100 | 997.3 |
| 20260506135039 | 22 | 205 | 0.0 | 0.0 | 0.00 | 0.00 | 0.00 | 100 | 1001.6 |
| 20260506134008 | 20 | 147 | 0.0 | 0.0 | 0.00 | 0.00 | 0.00 | 100 | 986.9 |